Content
SEND FEEDBACK

Daily
Averages
Monthly
Summary
United States of America

ST. LOUIS, MISSOURI


Home > North America > United States > Missouri
Elevation: 535 feet     Latitude: 38 45N     Longitude: 090 22W

WEATHER
 
SELECT A DAY
Number of Records: 196,364;   Date Range: 1/1/95 - 7/26/14
 
SHARE

PRINT THIS DATA

[ ← Previous Day ]
WEATHER ALMANAC - NOVEMBER 9, 2013
[ Next Day → ]
[ °C ]   °F
Weather ElementAverageHighLow
Temperature52.9 °F66.9 °F (2:54 pm)39 °F (11:54 pm)
Dewpoint36.2 °F39 °F (11:54 am)34 °F (1:54 am)
Humidity55.7 %86 % (11:54 pm)32 % (2:54 pm)
Barometer30.13 in30.25 in (11:54 pm)30.05 in (3:54 am)
Wind Speed8 mph17.3 mph (10:54 am)
Wind Gust25.3 mph (8:54 am)
Weather ElementAverage
Visibility10 mi
Wind DirectionSSE (173 °)

Weather ElementTotal
Precipitation---
Heating Degree Days12.1 (Base 65)
Growing Degree Days3 (Base 50)
Averaged from 23 records on November 9, 2013
WEATHER CONDITIONS BREAKOUT
WIND DIRECTION BREAKOUT
WEATHER BY HOUR - NOVEMBER 9, 2013
[ °C ]   °F
Local TimeTemperatureDewpointHumidityBarometerVisibilityWind DirectionWind SpeedGust SpeedPrecipitationEventsConditions
1:54 AM46.9 °F34.0 °F61 %30.08 in10.0 miSSW (200°)6.9 mphClear
2:54 AM50.0 °F34.0 °F54 %30.06 in10.0 miSSW (200°)11.5 mphClear
3:54 AM51.1 °F35.1 °F54 %30.05 in10.0 miSW (220°)11.5 mph18.4 mphClear
4:54 AM50.0 °F35.1 °F57 %30.06 in10.0 miSW (220°)8.1 mphClear
5:54 AM51.1 °F35.1 °F54 %30.07 in10.0 miSW (230°)12.7 mphClear
6:54 AM51.1 °F35.1 °F54 %30.08 in10.0 miSW (230°)12.7 mphClear
7:54 AM52.0 °F36.0 °F54 %30.10 in10.0 miWSW (240°)11.5 mph18.4 mphClear
8:54 AM55.0 °F37.0 °F51 %30.12 in10.0 miWSW (240°)16.1 mph25.3 mphClear
9:54 AM57.9 °F37.9 °F47 %30.12 in10.0 miWest (260°)12.7 mphClear
10:54 AM61.0 °F37.9 °F42 %30.12 in10.0 miWest (260°)17.3 mph20.7 mphClear
11:54 AM63.0 °F39.0 °F41 %30.11 in10.0 miWSW (240°)12.7 mphClear
12:54 PM64.9 °F37.9 °F37 %30.09 in10.0 miSW (230°)10.4 mphClear
1:54 PM66.0 °F37.0 °F34 %30.08 in10.0 miWSW (250°)12.7 mphClear
2:54 PM66.9 °F36.0 °F32 %30.09 in10.0 miWSW (250°)9.2 mph18.4 mphClear
3:54 PM66.0 °F35.1 °F32 %30.10 in10.0 miSW (230°)9.2 mphClear
4:54 PM59.0 °F36.0 °F42 %30.12 in10.0 miSW (230°)5.8 mphClear
5:54 PM50.0 °F37.9 °F63 %30.15 in10.0 miCalmClear
6:54 PM46.9 °F37.0 °F68 %30.18 in10.0 miCalmClear
7:54 PM44.1 °F37.0 °F76 %30.19 in10.0 miWSW (250°)3.5 mphClear
8:54 PM43.0 °F36.0 °F76 %30.21 in10.0 miCalmClear
9:54 PM41.0 °F36.0 °F82 %30.23 in10.0 miCalmClear
10:54 PM39.9 °F35.1 °F83 %30.24 in10.0 miCalmClear
11:54 PM39.0 °F35.1 °F86 %30.25 in10.0 miCalmClear
Hourly data recorded from KSUS, located miles away from St. Louis, Missouri







STORIES FROM OUR PARTNERS